Date,TemperatureHighF,TemperatureAvgF,TemperatureLowF,DewpointHighF,DewpointAvgF,DewpointLowF,HumidityHigh,HumidityAvg,HumidityLow,PressureMaxIn,PressureMinIn,WindSpeedMaxMPH,WindSpeedAvgMPH,GustSpeedMaxMPH,PrecipitationSumIn
2013-1-1,15,2,-17,7,-7,-25,83,68,42,0.00,40.00,8,3,17,0.00
2013-1-2,16,14,11,12,10,7,88,83,76,0.00,40.00,6,3,13,0.00
2013-1-3,24,16,11,14,10,3,88,75,53,0.00,40.00,8,5,25,0.00
2013-1-4,36,18,4,18,10,0,87,74,44,0.00,40.00,6,3,17,0.01
2013-1-5,34,15,0,16,8,-5,86,73,44,0.00,40.00,7,2,16,0.01
2013-1-6,29,21,10,20,13,6,85,73,50,0.00,40.00,7,4,14,0.00
2013-1-7,37,24,14,21,15,2,88,69,53,0.00,40.00,10,6,25,0.00
2013-1-8,38,22,3,27,15,-2,87,77,53,0.00,40.00,10,4,21,0.00
2013-1-9,35,28,15,26,20,12,88,70,50,0.00,40.00,10,6,29,0.00
2013-1-10,44,32,14,32,14,6,95,54,22,0.00,40.00,10,6,20,0.17
2013-1-11,40,36,34,40,35,33,99,97,95,0.00,40.00,9,5,20,0.27
2013-1-12,41,23,10,41,17,2,99,79,67,0.00,40.00,11,7,28,0.05
2013-1-13,10,6,2,3,0,-3,79,73,64,0.00,40.00,5,4,13,0.01
2013-1-14,10,3,-3,0,-4,-9,78,73,59,0.00,40.00,6,3,14,0.00
2013-1-15,27,15,4,14,5,-2,81,67,41,0.00,40.00,7,5,17,0.00
2013-1-16,27,20,7,23,12,-6,92,71,49,0.00,40.00,9,6,27,0.00
2013-1-17,10,0,-12,-3,-10,-20,75,63,53,0.00,40.00,6,2,12,0.00
2013-1-18,25,13,-11,20,8,-17,89,81,73,0.00,40.00,7,3,17,0.00
2013-1-19,31,18,1,27,13,-7,90,79,61,0.00,40.00,13,6,33,0.02
2013-1-20,4,-5,-16,-8,-14,-24,72,63,46,0.00,40.00,9,4,20,0.01
2013-1-21,-9,-13,-17,-17,-25,-29,72,55,41,0.00,40.00,9,5,19,0.00
2013-1-22,1,-12,-26,-18,-24,-36,65,55,36,0.00,40.00,6,3,11,0.00
2013-1-23,8,-7,-21,-2,-15,-29,72,66,58,0.00,40.00,10,4,24,0.00
2013-1-24,5,-5,-23,-2,-15,-32,76,61,44,0.00,40.00,6,3,12,0.00
2013-1-25,15,9,0,8,3,-6,80,75,63,0.00,40.00,7,5,18,0.00
2013-1-26,20,8,-13,8,-1,-20,80,67,59,0.00,40.00,8,3,14,0.00
2013-1-27,34,24,16,26,16,7,94,72,48,0.00,40.00,8,6,18,0.02
2013-1-28,37,28,17,30,25,15,96,89,76,0.00,40.00,5,2,12,0.27
2013-1-29,32,30,26,32,28,22,98,92,83,0.00,40.00,6,4,17,0.08
2013-1-30,25,16,7,21,12,2,85,81,77,0.00,40.00,8,6,19,0.01
2013-1-31,7,3,-4,2,-5,-11,79,70,63,0.00,40.00,9,6,19,0.00
2013-2-1,1,-8,-20,-13,-19,-28,69,58,44,0.00,40.00,5,3,12,0.00
2013-2-2,16,1,-14,-4,-10,-21,74,61,40,0.00,40.00,4,2,11,0.00
2013-2-3,11,2,-11,-2,-7,-17,76,65,41,0.00,40.00,7,4,17,0.00
2013-2-4,15,0,-25,-6,-15,-34,70,51,26,0.00,40.00,5,2,10,0.00
2013-2-5,21,10,-5,12,3,-11,86,74,53,0.00,40.00,6,3,16,0.00
2013-2-6,20,11,-12,17,6,-19,91,81,70,0.00,40.00,4,2,10,0.00
2013-2-7,23,20,17,19,17,12,91,87,79,0.00,40.00,7,3,16,0.00
2013-2-8,27,16,3,13,9,-2,87,75,52,0.00,40.00,5,2,11,0.08
2013-2-9,23,18,3,19,14,-2,93,85,71,0.00,40.00,9,6,21,0.01
2013-2-10,31,26,20,30,25,18,97,94,91,0.00,40.00,7,3,15,0.00
2013-2-11,30,24,19,29,22,15,97,89,82,0.00,40.00,8,5,16,0.00
2013-2-12,27,19,15,21,15,10,92,84,77,0.00,40.00,6,3,14,0.01
2013-2-13,42,28,18,27,22,15,90,79,56,0.00,40.00,5,3,10,0.52
2013-2-14,29,20,4,22,15,-2,91,79,63,0.00,40.00,7,4,17,0.01
2013-2-15,16,7,-1,3,-3,-6,81,66,41,0.00,40.00,8,4,18,0.01
2013-2-16,20,2,-16,1,-10,-23,78,60,30,0.00,40.00,5,2,10,0.01
2013-2-17,27,6,-21,8,-7,-29,70,55,38,0.00,40.00,10,5,22,0.01
2013-2-18,32,24,17,25,18,11,91,78,67,0.00,40.00,10,6,24,0.01
2013-2-19,15,5,-2,11,-3,-10,82,68,56,0.00,40.00,10,8,22,0.01
2013-2-20,19,7,-7,4,-1,-13,79,70,50,0.00,40.00,7,4,16,0.00
2013-2-21,31,12,-13,14,3,-20,86,69,42,0.00,40.00,6,3,16,0.01
2013-2-22,26,21,17,21,18,14,92,86,80,0.00,40.00,4,2,11,0.01
2013-2-23,32,26,20,25,22,18,94,86,69,0.00,40.00,5,2,10,0.06
2013-2-24,32,26,8,26,22,4,94,86,70,0.00,40.00,3,1,8,0.05
2013-2-25,32,18,-1,25,13,-6,90,80,72,0.00,40.00,5,2,13,0.04
2013-2-26,41,22,3,27,16,-2,93,77,52,0.00,40.00,7,3,21,0.25
2013-2-27,29,28,27,25,23,21,90,82,74,0.00,40.00,8,6,27,0.01
2013-2-28,28,23,19,23,18,13,89,80,70,0.00,40.00,8,6,22,0.00
2013-3-1,26,20,7,15,12,3,82,71,54,0.00,40.00,8,5,20,0.00
2013-3-2,31,10,-8,11,-3,-15,82,60,24,0.00,40.00,6,2,14,0.00
2013-3-3,38,12,-13,9,-4,-20,86,56,18,0.00,40.00,4,2,10,0.00
2013-3-4,35,21,6,17,5,-3,84,55,21,0.00,40.00,7,3,15,0.00
2013-3-5,29,24,19,19,14,6,90,66,40,0.00,40.00,7,4,19,0.00
2013-3-6,34,21,5,16,11,1,88,69,37,0.00,40.00,6,3,14,0.00
2013-3-7,40,17,-5,15,5,-11,86,63,32,0.00,40.00,6,2,9,0.00
2013-3-8,45,30,11,24,18,7,85,64,43,0.00,40.00,8,5,18,0.00
2013-3-9,34,32,29,32,28,20,97,87,68,0.00,40.00,7,5,18,0.27
2013-3-10,33,31,27,32,27,22,98,86,77,0.00,40.00,7,5,27,0.23
2013-3-11,27,24,20,24,20,17,93,88,76,0.00,40.00,8,6,24,0.01
2013-3-12,25,20,17,17,15,11,88,79,56,0.00,40.00,8,5,18,0.00
2013-3-13,35,18,1,11,1,-7,84,54,16,0.00,40.00,8,4,15,0.04
2013-3-14,38,21,-1,25,11,-6,82,68,41,0.00,40.00,6,3,14,0.01
2013-3-15,30,24,15,24,17,10,85,73,57,0.00,40.00,6,4,15,0.01
2013-3-16,24,16,4,12,6,-2,84,65,45,0.00,40.00,6,4,17,0.14
2013-3-17,30,10,-18,3,-9,-26,74,46,17,0.00,40.00,8,4,20,0.01
2013-3-18,30,22,15,25,16,6,86,78,55,0.00,40.00,10,7,22,0.01
2013-3-19,27,17,9,12,3,-3,82,57,30,0.00,40.00,12,9,31,0.03
2013-3-20,17,10,2,2,-2,-7,77,58,43,0.00,40.00,8,5,18,0.01
2013-3-21,34,17,5,9,5,0,82,61,34,0.00,40.00,6,3,12,0.01
2013-3-22,32,16,-2,19,7,-7,85,70,47,0.00,40.00,4,2,12,0.01
2013-3-23,38,22,2,19,13,-3,88,71,45,0.00,40.00,5,2,14,0.00
2013-3-24,33,24,14,24,17,11,87,76,63,0.00,40.00,9,4,22,0.00
2013-3-25,33,25,12,22,18,9,88,75,53,0.00,40.00,7,4,18,0.00
2013-3-26,42,30,22,21,19,14,88,65,37,0.00,40.00,6,2,13,0.00
2013-3-27,46,34,26,22,16,11,80,55,25,0.00,40.00,6,2,16,0.00
2013-3-28,50,38,21,21,14,11,82,45,21,0.00,40.00,7,3,14,0.00
2013-3-29,52,34,11,24,16,7,88,55,23,0.00,40.00,7,3,14,0.00
2013-3-30,48,38,32,39,31,-100,97,83,52,0.00,40.00,6,3,14,0.38
2013-3-31,35,30,23,30,19,5,97,67,33,0.00,40.00,13,6,30,0.03
2013-4-1,32,24,18,13,4,-1,81,42,25,0.00,40.00,10,6,23,0.03
2013-4-2,36,24,12,10,5,0,75,48,22,0.00,40.00,8,4,16,0.00
2013-4-3,46,26,2,18,6,-3,84,49,16,0.00,40.00,11,4,23,0.00
2013-4-4,47,40,30,30,20,12,64,47,29,0.00,40.00,10,6,21,0.00
2013-4-5,43,33,16,20,13,8,82,47,24,0.00,40.00,7,3,16,0.00
2013-4-6,41,33,30,34,30,27,95,88,72,0.00,40.00,10,6,21,0.20
2013-4-7,40,33,28,31,29,27,96,85,63,0.00,40.00,6,3,11,0.20
2013-4-8,40,35,29,36,33,28,98,95,84,0.00,40.00,6,2,10,0.62
2013-4-9,39,34,30,33,26,15,99,75,38,0.00,40.00,10,4,23,0.02
2013-4-10,39,33,27,24,19,12,78,57,39,0.00,40.00,7,5,15,0.00
2013-4-11,32,29,25,27,20,11,90,71,42,0.00,40.00,7,5,22,0.07
2013-4-12,36,28,24,27,24,21,91,84,65,0.00,40.00,7,4,16,0.27
2013-4-13,37,27,16,22,20,13,90,76,52,0.00,40.00,6,3,13,0.23
2013-4-14,43,25,6,31,18,2,95,78,39,0.00,40.00,9,4,22,0.01
2013-4-15,39,35,32,32,28,24,97,78,62,0.00,40.00,10,6,25,0.59
2013-4-16,47,37,26,29,25,20,88,66,36,0.00,40.00,7,4,16,0.01
2013-4-17,40,32,24,29,25,21,94,77,56,0.00,40.00,5,3,15,0.00
2013-4-18,34,31,29,31,29,27,97,94,89,0.00,40.00,8,6,24,0.15
2013-4-19,28,26,18,27,22,14,95,87,79,0.00,40.00,12,8,28,0.01
2013-4-20,40,22,1,21,10,-3,90,65,30,0.00,40.00,7,3,16,0.66
2013-4-21,38,29,13,34,24,10,94,82,69,0.00,40.00,12,7,27,0.20
2013-4-22,50,38,30,36,28,16,98,72,31,0.00,40.00,8,4,16,0.21
2013-4-23,45,33,20,29,24,15,96,74,35,0.00,40.00,8,5,17,0.40
2013-4-24,50,32,11,33,20,8,96,68,31,0.00,40.00,8,3,26,0.02
2013-4-25,49,36,20,31,22,16,96,63,28,0.00,40.00,7,3,18,0.11
2013-4-26,68,48,34,38,32,24,91,58,33,0.00,40.00,8,4,17,0.09
2013-4-27,72,50,28,40,32,27,96,61,22,0.00,40.00,7,2,15,0.02
2013-4-28,71,55,38,51,41,34,98,64,32,0.00,40.00,10,5,23,0.26
2013-4-29,73,52,34,45,39,34,99,68,28,0.00,40.00,5,2,12,0.28
2013-4-30,77,59,40,55,40,27,99,54,28,0.00,40.00,9,5,26,0.01
2013-5-1,48,37,31,39,32,28,96,84,55,0.00,40.00,7,3,13,0.20
2013-5-2,31,29,28,30,27,26,95,91,82,0.00,40.00,7,5,18,0.01
2013-5-3,29,28,27,27,26,24,93,90,86,0.00,40.00,6,5,18,0.00
2013-5-4,38,33,29,34,31,27,98,94,87,0.00,40.00,5,4,15,0.58
2013-5-5,52,38,31,38,34,30,99,86,59,0.00,40.00,6,3,11,0.36
2013-5-6,73,51,27,41,35,26,97,64,29,0.00,40.00,4,1,9,0.09
2013-5-7,78,54,31,44,36,30,97,62,21,0.00,40.00,5,2,11,0.00
2013-5-8,78,57,34,50,42,34,99,64,28,0.00,40.00,5,2,12,0.00
2013-5-9,55,40,35,47,36,27,96,86,66,0.00,40.00,7,5,20,0.25
2013-5-10,57,43,30,28,25,22,93,53,26,0.00,40.00,6,4,17,0.03
2013-5-11,42,38,35,34,25,-100,91,63,47,0.00,40.00,12,8,26,0.05
2013-5-12,50,39,27,19,16,10,71,41,20,0.00,40.00,9,6,23,0.01
2013-5-13,58,42,19,32,22,16,92,51,22,0.00,40.00,9,4,21,0.00
2013-5-14,85,63,35,47,40,32,88,47,20,0.00,40.00,10,5,23,0.00
2013-5-15,77,63,51,46,40,32,73,46,19,0.00,40.00,9,6,24,0.00
2013-5-16,70,53,45,47,17,-100,95,46,20,0.00,40.00,7,3,17,0.00
2013-5-17,73,57,44,49,32,-100,72,47,32,0.00,40.00,9,4,17,0.00
2013-5-18,72,59,51,62,55,47,100,87,66,0.00,40.00,8,4,15,1.55
2013-5-19,83,65,53,63,58,51,100,83,44,0.00,40.00,9,4,18,0.94
2013-5-20,72,58,42,61,54,42,100,90,57,0.00,40.00,9,4,20,1.96
2013-5-21,49,42,39,44,41,39,100,95,84,0.00,40.00,8,5,15,0.88
2013-5-22,47,43,39,46,41,38,99,95,85,0.00,40.00,9,5,22,0.22
2013-5-23,53,43,30,38,30,24,95,64,32,0.00,40.00,8,6,20,0.02
2013-5-24,68,48,25,38,30,24,98,60,24,0.00,40.00,7,3,12,0.00
2013-5-25,67,53,38,43,39,35,98,65,30,0.00,40.00,8,3,15,0.00
2013-5-26,70,54,36,44,34,28,99,57,21,0.00,40.00,9,4,20,0.00
2013-5-27,69,56,40,43,40,37,93,58,35,0.00,40.00,10,6,26,0.00
2013-5-28,65,58,53,54,48,41,92,69,58,0.00,40.00,7,4,14,0.00
2013-5-29,82,65,55,64,57,52,100,79,38,0.00,40.00,8,4,20,0.01
2013-5-30,79,69,60,67,62,59,99,82,57,0.00,40.00,10,6,25,0.18
2013-5-31,79,66,54,60,56,48,97,73,44,0.00,40.00,10,7,25,0.20
2013-6-1,70,53,40,59,51,39,99,92,67,0.00,40.00,7,3,20,0.20
2013-6-2,63,48,38,42,38,34,98,74,35,0.00,40.00,7,4,22,0.07
2013-6-3,64,50,31,40,34,27,99,62,29,0.00,40.00,7,2,14,0.01
2013-6-4,63,54,47,52,43,31,99,69,49,0.00,40.00,5,3,13,0.09
2013-6-5,54,51,50,51,50,49,99,96,89,0.00,40.00,7,4,14,0.85
2013-6-6,55,50,47,50,48,45,99,93,82,0.00,40.00,5,2,10,0.22
2013-6-7,67,54,38,48,44,35,100,73,37,0.00,40.00,5,1,10,0.01
2013-6-8,73,58,45,55,49,44,99,76,39,0.00,40.00,7,2,13,0.08
2013-6-9,62,54,45,58,52,45,100,93,76,0.00,40.00,6,3,13,0.17
2013-6-10,78,65,56,61,58,55,99,79,52,0.00,40.00,5,3,11,0.01
2013-6-11,80,65,51,63,56,47,100,76,32,0.00,40.00,7,2,15,0.00
2013-6-12,79,65,46,54,49,46,100,64,35,0.00,40.00,5,2,14,0.00
2013-6-13,70,60,47,50,48,45,98,66,41,0.00,40.00,8,4,16,0.00
2013-6-14,78,60,41,52,47,41,99,67,35,0.00,40.00,5,2,15,0.00
2013-6-15,71,63,54,65,60,53,99,89,71,0.00,40.00,5,2,12,0.08
2013-6-16,79,63,45,59,53,45,100,74,35,0.00,40.00,9,3,23,0.16
2013-6-17,64,54,41,57,50,40,100,88,67,0.00,40.00,6,3,14,0.12
2013-6-18,73,56,37,44,41,37,99,64,30,0.00,40.00,7,3,14,0.01
2013-6-19,78,61,39,57,49,39,99,70,39,0.00,40.00,6,3,13,0.00
2013-6-20,77,65,52,65,59,52,99,84,67,0.00,40.00,5,3,12,0.29
2013-6-22,73,68,61,68,65,61,99,89,79,0.00,40.00,5,2,10,0.04
2013-6-23,82,71,61,69,64,61,100,80,54,0.00,40.00,10,4,23,0.01
2013-6-24,83,70,54,68,60,54,100,75,44,0.00,40.00,7,2,15,0.00
2013-6-25,87,73,57,68,64,57,100,77,46,0.00,40.00,5,2,11,0.00
2013-6-26,83,70,59,72,67,59,100,91,66,0.00,40.00,8,2,17,0.53
2013-6-27,82,71,59,67,61,55,100,75,43,0.00,40.00,9,3,20,0.08
2013-6-28,67,63,57,63,59,55,96,88,67,0.00,40.00,7,4,14,0.16
2013-6-29,68,60,48,57,53,44,100,79,49,0.00,40.00,7,4,18,0.07
2013-6-30,79,63,46,55,49,45,99,66,32,0.00,40.00,6,2,13,0.00
2013-7-1,77,62,43,56,51,42,99,71,42,0.00,40.00,6,2,13,0.00
2013-7-2,76,58,37,52,41,34,99,63,22,0.00,40.00,5,2,14,0.00
2013-7-3,83,63,39,59,48,39,99,66,27,0.00,40.00,5,2,9,0.00
2013-7-4,83,69,52,61,57,52,99,69,43,0.00,40.00,8,4,17,0.00
2013-7-5,85,75,61,61,59,55,91,60,37,0.00,40.00,9,6,21,0.00
2013-7-6,86,74,67,73,64,58,96,71,51,0.00,40.00,7,5,17,0.05
2013-7-7,84,73,57,71,67,56,98,84,64,0.00,40.00,6,4,15,0.62
2013-7-8,80,62,55,68,58,-100,100,91,67,0.00,40.00,6,2,14,0.32
2013-7-9,76,66,54,71,64,54,100,94,84,0.00,40.00,7,2,15,0.25
2013-7-10,74,63,55,62,52,-100,99,73,45,0.00,40.00,8,5,24,0.10
2013-7-11,81,66,47,63,54,47,100,71,36,0.00,40.00,5,2,13,0.00
2013-7-12,84,71,56,62,58,55,97,66,43,0.00,40.00,9,6,24,0.00
2013-7-13,79,72,63,67,62,57,95,70,63,0.00,40.00,7,5,17,0.01
2013-7-14,84,71,63,70,63,60,99,78,49,0.00,40.00,7,3,17,0.07
2013-7-15,86,72,57,69,63,57,100,77,45,0.00,40.00,5,2,12,0.01
2013-7-16,89,83,68,71,69,67,98,65,52,0.00,40.00,7,4,18,0.06
2013-7-17,89,78,63,71,68,63,99,75,47,0.00,40.00,7,3,15,0.00
2013-7-18,90,80,66,71,68,66,100,69,49,0.00,40.00,11,5,27,0.00
2013-7-19,80,75,57,72,64,54,98,72,44,0.00,40.00,8,5,20,0.14
2013-7-20,70,61,47,58,50,-100,97,70,45,0.00,40.00,5,3,13,0.01
2013-7-21,74,61,43,60,53,42,99,77,54,0.00,40.00,5,2,11,0.00
2013-7-22,81,68,58,69,60,51,98,80,54,0.00,40.00,9,6,18,0.00
2013-7-23,69,60,47,55,49,46,98,70,45,0.00,40.00,7,4,15,0.00
2013-7-24,73,59,43,57,50,43,99,76,47,0.00,40.00,6,2,14,0.00
2013-7-25,79,65,54,61,57,52,99,77,47,0.00,40.00,5,3,13,0.41
2013-7-26,65,54,46,59,52,45,100,93,75,0.00,40.00,7,3,17,0.47
2013-7-27,54,48,43,49,46,42,97,91,78,0.00,40.00,7,5,16,0.16
2013-7-28,59,53,47,56,51,46,99,93,80,0.00,40.00,7,4,17,0.09
2013-7-29,76,58,40,60,50,40,99,79,45,0.00,40.00,4,1,9,0.01
2013-7-30,70,62,54,62,58,54,99,88,68,0.00,40.00,6,3,15,0.00
2013-7-31,76,67,58,63,57,47,99,76,38,0.00,40.00,9,4,19,0.00
2013-8-1,74,60,46,58,52,46,99,79,48,0.00,40.00,7,2,14,0.00
2013-8-2,74,61,47,58,52,47,99,76,45,0.00,40.00,7,3,18,0.03
2013-8-3,72,59,46,54,50,46,99,75,43,0.00,40.00,7,3,16,0.01
2013-8-4,71,57,41,56,48,41,99,76,45,0.00,40.00,4,1,9,0.00
2013-8-5,71,58,47,64,57,47,100,95,76,0.00,40.00,4,2,12,1.25
2013-8-6,75,66,60,64,60,57,99,84,53,0.00,40.00,5,3,12,0.05
2013-8-7,72,63,47,62,53,45,99,76,40,0.00,40.00,7,4,17,0.05
2013-8-8,72,57,42,60,52,42,100,85,51,0.00,40.00,6,2,18,0.14
2013-8-9,69,59,47,56,51,47,100,79,49,0.00,40.00,7,2,17,0.14
2013-8-10,73,61,50,58,54,50,100,80,51,0.00,40.00,5,2,9,0.00
2013-8-11,77,60,44,60,52,44,100,80,45,0.00,40.00,5,1,11,0.00
2013-8-12,75,60,43,60,53,42,100,81,50,0.00,40.00,7,3,18,0.01
2013-8-13,65,53,41,53,45,-100,99,78,54,0.00,40.00,5,2,12,0.01
2013-8-14,71,53,37,53,45,37,99,79,41,0.00,40.00,7,2,15,0.00
2013-8-15,78,54,43,60,39,-100,99,74,40,0.00,40.00,5,2,13,0.00
2013-8-16,81,62,45,61,48,-100,99,72,35,0.00,40.00,5,2,11,0.00
2013-8-17,80,64,46,59,51,-100,100,69,41,0.00,40.00,7,3,17,0.00
2013-8-18,80,65,47,59,53,47,99,70,40,0.00,40.00,8,4,19,0.00
2013-8-19,83,66,58,66,51,-100,91,74,56,0.00,40.00,8,4,19,0.00
2013-8-20,87,74,63,69,64,-100,98,77,54,0.00,40.00,7,4,18,0.00
2013-8-21,82,73,59,74,68,59,99,86,64,0.00,40.00,7,3,14,0.01
2013-8-22,78,66,47,58,51,46,100,65,33,0.00,40.00,6,3,13,0.01
2013-8-23,82,62,41,59,48,41,99,71,29,0.00,40.00,5,2,13,0.00
2013-8-24,83,71,54,68,60,-100,99,72,52,0.00,40.00,11,6,24,0.00
2013-8-25,93,81,72,72,71,69,91,72,49,0.00,40.00,8,5,22,0.00
2013-8-26,86,77,69,76,72,67,99,88,72,0.00,40.00,5,3,28,2.27
2013-8-27,79,71,68,72,70,68,99,95,80,0.00,40.00,5,2,28,3.09
2013-8-28,84,76,67,72,67,61,99,76,46,0.00,40.00,5,1,10,0.00
2013-8-29,83,70,62,71,67,62,100,92,66,0.00,40.00,9,4,20,0.96
2013-8-30,77,69,55,70,64,55,100,88,63,0.00,40.00,6,3,16,0.94
2013-8-31,83,66,52,66,59,-100,100,82,53,0.00,40.00,6,2,14,0.05
2013-9-1,74,65,56,62,59,53,98,82,59,0.00,40.00,9,5,20,0.05
2013-9-2,61,53,43,52,48,43,99,86,63,0.00,40.00,7,4,14,0.03
2013-9-3,74,55,39,55,48,39,99,79,51,0.00,40.00,6,2,13,0.01
2013-9-4,69,59,45,58,53,45,100,83,55,0.00,40.00,6,3,13,0.00
2013-9-5,77,57,39,57,46,39,99,72,35,0.00,40.00,5,2,10,0.00
2013-9-6,83,66,51,68,60,50,99,84,58,0.00,40.00,5,3,15,0.00
2013-9-7,82,65,57,70,61,-100,99,89,65,0.00,40.00,7,2,16,0.00
2013-9-8,69,58,43,59,52,43,99,83,52,0.00,40.00,7,2,13,0.00
2013-9-9,80,66,59,72,64,56,99,93,75,0.00,40.00,6,2,13,0.20
2013-9-10,76,69,62,69,66,61,100,91,70,0.00,40.00,5,2,14,0.08
2013-9-11,76,64,53,64,57,52,100,83,46,0.00,40.00,7,3,20,0.06
2013-9-12,62,54,39,55,49,38,99,85,53,0.00,40.00,8,4,21,0.06
2013-9-13,65,48,35,48,42,35,99,82,46,0.00,40.00,5,1,10,0.01
2013-9-14,70,52,37,56,45,-100,99,83,48,0.00,40.00,8,2,17,0.10
2013-9-15,54,48,34,53,47,34,99,96,87,0.00,40.00,6,2,19,0.21
2013-9-16,64,45,29,45,37,29,98,78,42,0.00,40.00,4,1,13,0.01
2013-9-17,68,53,39,50,43,37,97,72,41,0.00,40.00,8,5,17,0.01
2013-9-18,65,57,55,64,56,52,98,95,86,0.00,40.00,6,5,14,0.07
2013-9-19,74,67,64,70,66,63,99,95,86,0.00,40.00,7,4,20,0.60
2013-9-20,65,58,45,64,54,44,97,87,66,0.00,40.00,8,4,18,0.09
2013-9-21,57,47,34,45,39,-100,98,76,50,0.00,40.00,9,4,17,0.00
2013-9-22,64,44,29,46,37,29,98,79,43,0.00,40.00,6,2,13,0.00
2013-9-23,69,55,43,50,46,41,95,74,47,0.00,40.00,8,6,18,0.00
2013-9-24,74,55,40,52,46,39,99,78,39,0.00,40.00,6,3,12,0.00
2013-9-25,74,53,37,54,46,37,99,82,43,0.00,40.00,6,2,11,0.01
2013-9-26,74,56,40,52,47,40,99,77,41,0.00,40.00,7,4,17,0.01
2013-9-27,77,66,57,58,53,49,80,65,52,0.00,40.00,11,7,23,0.00
2013-9-28,71,60,50,62,50,-100,95,76,54,0.00,40.00,10,7,29,0.28
2013-9-29,71,53,39,49,44,38,99,76,37,0.00,40.00,6,3,16,0.03
2013-9-30,72,61,53,51,47,45,77,62,45,0.00,40.00,12,7,30,0.01
2013-10-1,59,53,49,39,36,35,69,54,40,0.00,40.00,3,2,10,0.00
2013-10-2,75,54,34,50,38,32,98,63,21,0.00,40.00,4,2,12,0.10
2013-10-3,56,52,50,52,51,49,99,96,85,0.00,40.00,4,3,11,0.61
2013-10-4,58,52,50,52,50,49,97,92,79,0.00,40.00,6,4,15,0.27
2013-10-5,56,52,50,55,52,49,99,98,95,0.00,40.00,5,3,12,1.02
2013-10-6,56,50,44,53,48,43,99,95,78,0.00,40.00,7,3,16,0.60
2013-10-7,59,46,33,45,40,32,99,83,46,0.00,40.00,6,3,12,0.05
2013-10-8,73,54,31,44,39,31,99,64,30,0.00,40.00,11,6,26,0.01
2013-10-9,73,62,51,49,46,43,85,57,40,0.00,40.00,10,6,20,0.00
2013-10-10,73,60,40,47,44,39,98,60,33,0.00,40.00,8,4,16,0.00
2013-10-11,73,61,44,54,49,43,96,69,44,0.00,40.00,13,7,29,0.00
2013-10-12,63,54,45,54,43,-100,94,68,54,0.00,40.00,11,8,25,0.00
2013-10-13,56,46,29,43,35,27,97,71,33,0.00,40.00,6,4,14,0.00
2013-10-14,54,42,27,37,32,26,97,73,48,0.00,40.00,4,2,10,0.00
2013-10-15,49,47,44,48,45,37,98,93,65,0.00,40.00,7,4,21,1.14
2013-10-16,45,40,30,44,38,29,97,90,68,0.00,40.00,7,4,18,0.44
2013-10-17,50,38,27,42,35,26,98,91,65,0.00,40.00,4,1,8,0.05
2013-10-18,48,40,31,41,35,26,98,83,44,0.00,40.00,8,3,18,0.24
2013-10-19,40,36,30,37,32,-100,98,92,80,0.00,40.00,5,2,11,0.14
2013-10-20,38,31,25,35,29,24,97,96,88,0.00,40.00,4,2,8,0.11
2013-10-21,34,31,29,32,28,25,98,88,74,0.00,40.00,7,5,18,0.07
2013-10-22,35,32,27,30,28,25,94,84,72,0.00,40.00,7,4,15,0.14
2013-10-23,34,31,26,28,24,19,93,77,54,0.00,40.00,6,4,12,0.05
2013-10-24,36,32,29,29,27,24,93,80,62,0.00,40.00,6,4,13,0.09
2013-10-25,49,36,21,37,28,19,94,73,50,0.00,40.00,10,4,24,0.01
2013-10-26,47,38,32,35,30,-100,93,76,58,0.00,40.00,9,5,21,0.06
2013-10-27,49,38,30,32,29,26,90,72,48,0.00,40.00,7,4,19,0.01
2013-10-28,41,32,22,28,19,-100,92,65,37,0.00,40.00,6,4,18,0.01
2013-10-29,35,29,19,32,26,17,96,88,67,0.00,40.00,5,2,11,0.05
2013-10-30,48,40,33,48,39,32,99,98,97,0.00,40.00,7,3,12,0.09
2013-10-31,50,47,43,50,47,42,100,99,98,0.00,40.00,5,2,11,0.12
2013-11-1,43,39,36,42,38,34,99,96,92,0.00,40.00,7,4,14,0.06
2013-11-2,45,34,23,33,28,-100,96,82,46,0.00,40.00,5,2,11,0.01
2013-11-3,47,34,19,33,26,17,96,76,53,0.00,40.00,11,6,25,0.00
2013-11-4,42,41,34,41,36,31,96,84,65,0.00,40.00,11,8,27,0.16
2013-11-5,45,34,24,32,29,23,97,82,52,0.00,40.00,6,2,13,0.03
2013-11-6,35,30,19,31,27,18,96,88,73,0.00,40.00,6,4,15,0.22
2013-11-7,36,25,13,25,19,10,93,80,64,0.00,40.00,5,2,11,0.09
2013-11-8,35,27,10,31,22,7,93,84,74,0.00,40.00,9,4,20,0.04
2013-11-9,36,34,33,35,30,-100,97,89,78,0.00,40.00,9,6,22,0.15
2013-11-10,41,36,31,30,26,24,93,68,52,0.00,40.00,9,6,21,0.02
2013-11-11,32,21,15,30,10,6,92,62,48,0.00,40.00,10,7,25,0.01
2013-11-12,27,19,11,7,5,2,78,55,35,0.00,40.00,7,5,14,0.00
2013-11-13,46,31,16,30,19,7,78,61,43,0.00,40.00,10,6,24,0.00
2013-11-14,45,35,27,32,29,26,95,79,59,0.00,40.00,4,2,9,0.00
2013-11-15,51,36,25,36,31,24,97,82,54,0.00,40.00,6,3,15,0.00
2013-11-16,46,41,37,46,36,-100,100,87,74,0.00,40.00,9,5,19,0.53
2013-11-17,49,40,30,49,39,28,100,94,84,0.00,40.00,11,6,29,0.22
2013-11-18,29,26,24,26,18,16,87,72,65,0.00,40.00,12,8,25,0.01
2013-11-19,39,29,12,18,16,9,90,61,41,0.00,40.00,11,6,27,0.00
2013-11-20,41,37,32,30,23,16,93,59,40,0.00,40.00,11,8,25,0.00
2013-11-21,34,28,22,34,26,16,99,89,77,0.00,40.00,8,5,18,0.01
2013-11-22,31,21,11,16,9,-2,85,61,32,0.00,40.00,11,6,22,0.01
2013-11-23,14,8,1,5,-4,-100,79,60,43,0.00,40.00,10,6,23,0.01
2013-11-24,24,10,-7,12,-1,-13,79,62,48,0.00,40.00,12,6,25,0.00
2013-11-25,36,30,24,25,20,13,76,68,58,0.00,40.00,9,6,29,0.00
2013-11-26,26,14,11,14,5,0,82,67,48,0.00,40.00,9,6,21,0.00
2013-11-27,23,17,12,15,11,8,88,78,56,0.00,40.00,6,3,13,0.00
2013-11-28,23,17,13,15,13,10,89,82,63,0.00,40.00,5,2,11,0.00
2013-11-29,24,16,-1,16,10,-5,87,76,63,0.00,40.00,9,4,19,0.00
2013-11-30,37,28,24,24,19,-100,81,72,59,0.00,40.00,6,3,17,0.06
2013-12-1,33,29,26,26,24,21,89,81,73,0.00,40.00,4,2,8,0.01
2013-12-2,33,27,16,28,24,14,94,88,82,0.00,40.00,8,4,17,0.01
2013-12-3,30,28,24,29,26,22,96,93,90,0.00,40.00,6,4,14,0.00
2013-12-4,32,28,24,31,26,22,98,94,90,0.00,40.00,6,3,14,0.00
2013-12-5,23,8,-3,21,2,-9,92,78,72,0.00,40.00,8,6,23,0.00
2013-12-6,5,-4,-10,-4,-11,-17,76,71,66,0.00,40.00,5,3,11,0.00
2013-12-7,-2,-9,-21,-11,-18,-100,71,65,63,0.00,40.00,6,4,14,0.00
2013-12-8,7,2,-17,3,-4,-25,82,76,67,0.00,40.00,4,2,8,0.00
2013-12-9,7,-1,-14,3,-8,-22,82,73,63,0.00,40.00,6,3,21,0.00
2013-12-10,5,-4,-13,-4,-11,-20,74,70,64,0.00,40.00,6,3,17,0.00
2013-12-11,-3,-9,-15,-12,-17,-23,79,67,57,0.00,40.00,5,4,16,0.00
2013-12-12,9,2,-11,3,-5,-18,79,73,66,0.00,40.00,5,3,10,0.00
2013-12-13,10,5,0,2,-2,-6,80,75,68,0.00,40.00,4,3,10,0.00
2013-12-14,16,8,1,10,1,-100,86,77,72,0.00,40.00,6,3,14,0.00
2013-12-15,4,-7,-21,-2,-15,-29,77,68,57,0.00,40.00,6,4,15,0.00
2013-12-16,9,1,-18,5,-5,-26,85,76,66,0.00,40.00,8,4,17,0.00
2013-12-17,23,16,9,20,12,2,91,84,71,0.00,40.00,6,4,15,0.00
2013-12-18,25,7,-11,15,1,-17,88,76,60,0.00,40.00,7,3,15,0.01
2013-12-19,16,13,6,11,9,2,87,82,75,0.00,40.00,8,4,16,0.01
2013-12-20,22,11,-3,13,6,-8,85,79,67,0.00,40.00,4,1,9,0.01
2013-12-21,20,14,5,14,9,-100,87,82,73,0.00,40.00,3,1,8,0.01
2013-12-22,23,19,16,19,16,12,92,88,84,0.00,40.00,5,3,13,0.00
2013-12-23,17,12,4,13,8,-1,87,82,74,0.00,40.00,6,3,15,0.00
2013-12-24,12,3,-17,5,-3,-24,81,76,69,0.00,40.00,8,4,19,0.00
2013-12-25,16,11,6,11,6,1,85,79,74,0.00,40.00,6,4,15,0.00
2013-12-26,15,7,-1,8,2,-6,86,79,67,0.00,40.00,3,1,6,0.00
2013-12-27,29,21,9,26,18,6,95,90,85,0.00,40.00,8,4,20,0.00
2013-12-28,31,25,15,30,22,-100,96,92,86,0.00,40.00,10,4,25,0.00
2013-12-29,14,0,-16,10,-6,-23,84,72,61,0.00,40.00,9,6,21,0.00
2013-12-30,-3,-10,-26,-13,-19,-34,71,64,52,0.00,40.00,4,1,8,0.00
2013-12-31,-6,-15,-25,-17,-24,-34,71,64,56,0.00,40.00,5,2,10,0.00
2014-1-1,1,-8,-22,-7,-16,-30,73,69,64,0.00,40.00,4,2,7,0.00
2014-1-2,6,-7,-22,-5,-15,-29,73,67,55,0.00,40.00,5,2,10,0.00